Location: Viterbo
(42.4170°N, 12.1000°E)
Time: 13:56:51
(UTC+01:00)

ISS - Visible Passes

Search period start: 18 December 2017 00:00
Search period end: 28 December 2017 00:00
Orbit: 402 x 406 km, 51.6° (Epoch: 18 December)

Date Brightness Start Highest point End Pass type
(mag) Time Alt. Az. Time Alt. Az. Time Alt. Az.
19 Dec -0.2 17:42:25 10° WSW 17:43:33 11° SW 17:44:41 10° SSW visible
24 Dec -0.2 06:53:33 10° SSE 06:54:59 12° SE 06:56:25 10° ESE visible
26 Dec -1.5 06:43:38 10° SSW 06:46:28 28° SE 06:49:21 10° ENE visible
27 Dec -0.7 05:52:19 10° S 05:54:18 15° SE 05:56:19 10° E visible
